sat.trackr.live / text

‹ back to catalog

STARLINK-11659 [DTC]

NORAD 63266 · 2025-053B

PAYLOAD ACTIVE UNKNOWN

§ Identity

Operator
Country
US
Launch date
2025-03-15
Launch site
AFETR
Launch vehicle
Mass (kg)
RCS (m²)

Purposes: comms

External: N2YO · Heavens-Above · Gunter

§ Orbital elements

Epoch: 2026-05-25T00:11:35.730816Z

Period
91.67 min
Inclination
43.0023°
Eccentricity
0.0002001
Mean motion
15.70868367 rev/d
Perigee alt
355.1 km
Apogee alt
357.8 km
Semi-major
6,734.6 km
B*
1.3850e-3
RAAN
12.0935°
Arg perigee
272.6697°
Mean anomaly
87.3942°
Rev number
6,967

§ Raw data

STARLINK-11659 [DTC]1 63266U 25053B   26145.00805244  .00181415  00000+0  13850-2 0  99972 63266  43.0023  12.0935 0002001 272.6697  87.3942 15.70868367 69671

JSON: /api/v1/satellites/63266 · /tle

For live sub-satellite position, see the globe view (requires WebGL).

§ Visibility from observer

Set your observer location to see the next 7 days of passes ≥ 10°. The values pass through the URL so the page stays shareable.

No JS? Fill the form by hand. The geolocation button needs JavaScript.